Find OneWeb SL0594

NORAD ID: 54660 Int'l Des: 2022-166 Owner: ONEWEBN Country: UK Constellation: oneweb operational
LEOCIRCULARPOLARONEWEB_TYPE

当前视图

正在加载3D地球...

About OneWeb SL0594

OneWeb SL0594 (NORAD 54660) is a oneweb constellation satellite launched Dec 8, 2022 by ONEWEBN of UK. It operates in LEO, CIRCULAR, POLAR, ONEWEB_TYPE orbit with a mass of 148.00 kg.

关于 OneWeb SL0594

正在加载描述...

即将过境

Passes for default location (London). Set your location on the main map for personalized predictions.

高度历史

Loading altitude history...

两行轨道根数

1 54660U 22166U 26166.46254117 .00000095 00000-0 19843-3 0 9991
2 54660 87.9252 244.3354 0001911 102.5056 257.6292 13.21827971171331
Epoch: Jun 15, 2026 • Age: 5 hours

当前状态

高度 1199.5 km
速度 7.25 km/s
星下点 -53.38°S, 75.53°W
发射日期 Dec 8, 2022
运行时间 3.5 years
类型 internet

技术详情

分类 Payload
质量 148.00 kg
干质量 140.00 kg
总质量 148.00 kg
长度 1.30 m
直径 1.00 m
跨度 5.00 m
形状 Trapezoid+2 pan
制造商 ONEWUS
平台类型 ARROW
阶段状态 In Orbit
所有者/国家 ONEWEBN/UK

Most Searched